Weather History for KRQB - November, 2014

Change the Weather History Date:

Sunday, November 16, 2014

  Actual Average Record
Temperature  
Mean Temperature 27 °F -  
Max Temperature 29 °F 44 °F 62 °F (1975)
Min Temperature 25 °F 26 °F 15 °F (2002)
Degree Days  
Heating Degree Days 38    
Moisture  
Dew Point 27 °F    
Average Humidity 98    
Maximum Humidity 100    
Minimum Humidity 93    
Precipitation  
Precipitation 0.00 in - - ()
Sea Level Pressure  
Sea Level Pressure 29.98 in    
Wind  
Wind Speed 3 mph (SSW)    
Max Wind Speed 9 mph    
Max Gust Speed -    
Visibility 3 miles    
Events Snow    
Averages and records for this station are not official NWS values.
T = Trace of Precipitation, MM = Missing Value Source: NWS Daily Summary

Daily Weather History Graph

Daily Weather History Graph

Search for Another Location

Airport or City:

Trip Planner

Search our weather history database for the weather conditions in past years. The results will help you decide how hot, cold, wet, or windy it might be!

Date:

Astronomy

Nov. 16, 2014 Rise Set
Actual Time 7:37 AM EST 5:15 PM EST
Civil Twilight 7:06 AM EST 5:46 PM EST
Nautical Twilight 6:31 AM EST 6:21 PM EST
Astronomical Twilight 5:57 AM EST 6:55 PM EST
Moon 1:32 AM EST (11/16) 2:19 PM EST (11/16)
Length of Visible Light 10h 40m
Length of Day
9h 38m
Waning Crescent, 31% of the Moon is Illuminated
Nov 16
Waning Crescent
Nov 22
New
Nov 29
First Quarter
Dec 6
Full
Dec 14
Last Quarter

Hourly Weather History & Observations

Time (EST) Temp. Windchill Dew Point Humidity Pressure Visibility Wind Dir Wind Speed Gust Speed Precip Events Conditions
12:14 AM 25.7 °F - 25.7 °F 100% 30.15 in 3.0 mi Calm Calm - N/A Snow Light Snow
12:34 AM 25.7 °F - 25.7 °F 100% 30.14 in 1.5 mi Calm Calm - N/A Snow Light Snow
12:55 AM 25.7 °F - 25.7 °F 100% 30.13 in 2.0 mi Calm Calm - N/A Snow Light Snow
1:14 AM 25.7 °F - 25.7 °F 100% 30.13 in 1.5 mi Calm Calm - N/A Snow Light Snow
1:34 AM 25.7 °F - 25.7 °F 100% 30.13 in 1.5 mi Calm Calm - N/A Snow Light Snow
1:55 AM 25.7 °F - 25.7 °F 100% 30.12 in 1.8 mi Calm Calm - N/A Snow Light Snow
2:14 AM 25.7 °F - 25.7 °F 100% 30.12 in 1.8 mi Calm Calm - N/A Snow Light Snow
2:34 AM 25.7 °F - 25.7 °F 100% 30.11 in 1.5 mi Calm Calm - N/A Snow Light Snow
2:55 AM 25.7 °F - 25.7 °F 100% 30.10 in 1.2 mi Calm Calm - N/A Snow Light Snow
3:14 AM 25.7 °F - 25.7 °F 100% 30.09 in 2.5 mi Calm Calm - N/A Snow Light Snow
3:34 AM 25.7 °F - 25.7 °F 100% 30.08 in 3.0 mi Calm Calm - N/A Snow Light Snow
3:55 AM 25.5 °F 21.3 °F 25.5 °F 100% 30.07 in 2.5 mi SE 3.5 mph - N/A Snow Light Snow
4:14 AM 25.5 °F 21.3 °F 25.5 °F 100% 30.06 in 2.5 mi South 3.5 mph - N/A Snow Light Snow
4:34 AM 25.7 °F - 25.7 °F 100% 30.06 in 3.0 mi Calm Calm - N/A Snow Light Snow
4:55 AM 25.7 °F - 25.7 °F 100% 30.05 in 4.0 mi Calm Calm - N/A Snow Light Snow
5:14 AM 25.9 °F - 25.9 °F 100% 30.04 in 3.0 mi Calm Calm - N/A Snow Light Snow
5:34 AM 26.1 °F - 26.1 °F 100% 30.04 in 5.0 mi Calm Calm - N/A Snow Light Snow
5:55 AM 26.2 °F 20.7 °F 26.2 °F 100% 30.05 in 3.0 mi SW 4.6 mph - N/A Snow Light Snow
6:14 AM 26.6 °F 19.1 °F 26.6 °F 100% 30.05 in 5.0 mi SW 6.9 mph - N/A Snow Light Snow
6:35 AM 27.0 °F 19.5 °F 26.6 °F 99% 30.05 in 3.0 mi WSW 6.9 mph - N/A Snow Light Snow
6:55 AM 26.8 °F 19.3 °F 26.6 °F 99% 30.04 in 2.5 mi WSW 6.9 mph - N/A Snow Light Snow
7:14 AM 26.6 °F 20.0 °F 26.4 °F 99% 30.04 in 3.0 mi SW 5.8 mph - N/A Snow Light Snow
7:35 AM 26.6 °F 20.0 °F 26.1 °F 98% 30.03 in 3.0 mi SW 5.8 mph - N/A Snow Light Snow
7:55 AM 26.2 °F 19.6 °F 25.7 °F 98% 30.03 in 7.0 mi SW 5.8 mph - N/A Snow Light Snow
8:14 AM 25.9 °F 20.3 °F 25.3 °F 98% 30.02 in 7.0 mi SW 4.6 mph - N/A Snow Light Snow
8:35 AM 26.6 °F 20.0 °F 25.9 °F 97% 30.03 in 10.0 mi WSW 5.8 mph - N/A   Overcast
8:55 AM 26.6 °F 19.1 °F 25.7 °F 96% 30.04 in 10.0 mi WSW 6.9 mph - N/A   Overcast
9:14 AM 26.6 °F 19.1 °F 25.7 °F 96% 30.04 in 4.0 mi SW 6.9 mph - N/A Snow Light Snow
9:35 AM 26.6 °F 19.1 °F 25.7 °F 96% 30.04 in 2.0 mi WSW 6.9 mph - N/A Snow Light Snow
9:54 AM 26.8 °F 20.2 °F 25.7 °F 96% 30.03 in 2.0 mi SW 5.8 mph - N/A Snow Light Snow
10:14 AM 27.1 °F 19.7 °F 25.7 °F 94% 30.03 in 2.0 mi SW 6.9 mph - N/A Snow Light Snow
10:35 AM 27.3 °F 19.9 °F 26.1 °F 95% 30.02 in 2.5 mi West 6.9 mph - N/A Snow Light Snow
10:54 AM 27.5 °F 20.2 °F 25.9 °F 94% 30.02 in 3.0 mi WSW 6.9 mph - N/A Snow Light Snow
11:14 AM 27.9 °F 21.5 °F 26.1 °F 93% 30.01 in 3.0 mi SW 5.8 mph - N/A Snow Light Snow
11:35 AM 28.0 °F 21.7 °F 26.2 °F 93% 30.01 in 1.0 mi SW 5.8 mph - N/A Snow Light Snow
11:54 AM 28.0 °F 22.8 °F 26.6 °F 94% 30.00 in 1.0 mi SW 4.6 mph - N/A Snow Light Snow
12:14 PM 28.2 °F 23.1 °F 27.1 °F 96% 29.99 in 1.5 mi SSW 4.6 mph - N/A Snow Light Snow
12:35 PM 28.4 °F 24.6 °F 27.5 °F 96% 29.98 in 1.5 mi South 3.5 mph - N/A Snow Light Snow
12:54 PM 28.4 °F - 27.5 °F 96% 29.97 in 1.8 mi Calm Calm - N/A Snow Light Snow
1:14 PM 29.1 °F 25.4 °F 27.9 °F 95% 29.96 in 2.5 mi SSW 3.5 mph - N/A Snow Light Snow
1:35 PM 29.8 °F 24.9 °F 28.2 °F 94% 29.96 in 2.0 mi SSW 4.6 mph - N/A Snow Light Snow
1:54 PM 29.8 °F 23.9 °F 28.4 °F 94% 29.95 in 1.8 mi SSW 5.8 mph - N/A Snow Light Snow
2:14 PM 29.7 °F - 28.4 °F 95% 29.94 in 1.2 mi Calm Calm - N/A Snow Light Snow
2:35 PM 29.3 °F 25.6 °F 29.1 °F 99% 29.93 in 1.2 mi SSW 3.5 mph - N/A Snow Light Snow
2:54 PM 29.8 °F 23.0 °F 29.3 °F 98% 29.93 in 2.5 mi South 6.9 mph - N/A Snow Light Snow
3:14 PM 29.8 °F 26.3 °F 29.3 °F 98% 29.92 in 2.0 mi South 3.5 mph - N/A Snow Light Snow
3:35 PM 29.8 °F 23.9 °F 29.3 °F 98% 29.92 in 3.0 mi South 5.8 mph - N/A Snow Light Snow
3:54 PM 29.8 °F 23.0 °F 29.3 °F 98% 29.91 in 2.0 mi South 6.9 mph - N/A Snow Light Snow
4:14 PM 29.7 °F 26.1 °F 29.3 °F 99% 29.92 in 1.8 mi South 3.5 mph - N/A Snow Light Snow
4:35 PM 29.5 °F 22.5 °F 29.5 °F 100% 29.92 in 1.8 mi South 6.9 mph - N/A Snow Light Snow
4:54 PM 29.5 °F 24.5 °F 29.5 °F 100% 29.92 in 2.0 mi South 4.6 mph - N/A Snow Light Snow
5:14 PM 29.3 °F 24.3 °F 29.3 °F 100% 29.92 in 2.0 mi South 4.6 mph - N/A Snow Light Snow
5:35 PM 29.3 °F 22.3 °F 29.3 °F 100% 29.91 in 3.0 mi South 6.9 mph - N/A Snow Light Snow
5:54 PM 29.1 °F 20.6 °F 29.1 °F 100% 29.91 in 3.0 mi South 9.2 mph - N/A Snow Light Snow
6:14 PM 28.4 °F 21.2 °F 28.4 °F 100% 29.91 in 2.0 mi South 6.9 mph - N/A Snow Light Snow
6:35 PM 28.4 °F 22.2 °F 28.4 °F 100% 29.90 in 2.5 mi South 5.8 mph - N/A Snow Light Snow
6:54 PM 28.4 °F 22.2 °F 28.4 °F 100% 29.89 in 2.5 mi South 5.8 mph - N/A Snow Light Snow
7:14 PM 28.4 °F 21.2 °F 28.4 °F 100% 29.89 in 2.5 mi South 6.9 mph - N/A Snow Light Snow
7:35 PM 28.4 °F 21.2 °F 28.4 °F 100% 29.88 in 3.0 mi South 6.9 mph - N/A Snow Light Snow
7:54 PM 28.4 °F 21.2 °F 28.4 °F 100% 29.87 in 2.5 mi South 6.9 mph - N/A Snow Light Snow
8:15 PM 28.4 °F 22.2 °F 28.4 °F 100% 29.86 in 4.0 mi South 5.8 mph - N/A Snow Light Snow
8:35 PM 28.4 °F 21.2 °F 28.4 °F 100% 29.85 in 3.0 mi South 6.9 mph - N/A Snow Light Snow
8:54 PM 28.4 °F 23.3 °F 28.4 °F 100% 29.85 in 4.0 mi South 4.6 mph - N/A Snow Light Snow
9:15 PM 28.4 °F 23.3 °F 28.4 °F 100% 29.84 in 3.0 mi South 4.6 mph - N/A Snow Light Snow
9:35 PM 28.4 °F 22.2 °F 28.4 °F 100% 29.84 in 3.0 mi South 5.8 mph - N/A Snow Light Snow
9:54 PM 28.4 °F 22.2 °F 28.4 °F 100% 29.83 in 3.0 mi South 5.8 mph - N/A Snow Light Snow
10:15 PM 28.4 °F 24.6 °F 28.4 °F 100% 29.82 in 4.0 mi South 3.5 mph - N/A Snow Light Snow
10:34 PM 28.8 °F 22.6 °F 28.8 °F 100% 29.82 in 4.0 mi South 5.8 mph - N/A Snow Light Snow
10:54 PM 28.4 °F 20.4 °F 28.4 °F 100% 29.81 in 4.0 mi South 8.1 mph - N/A Snow Light Snow
11:15 PM 28.4 °F 23.3 °F 28.4 °F 100% 29.80 in 4.0 mi South 4.6 mph - N/A Snow Light Snow
11:34 PM 28.4 °F - 28.4 °F 100% 29.80 in 4.0 mi Calm Calm - N/A Snow Light Snow
11:54 PM 28.4 °F 23.3 °F 28.4 °F 100% 29.80 in 4.0 mi South 4.6 mph - N/A Snow Light Snow